This is the latest recevied weather packets stored in our database for station/object NO4D. If no packets are shown the sender has not sent any weather packets the latest 10 day(s).
| Time | Temp. | Humidity | Pressure | Rain* | Wind** | Luminosity | Snow |
|---|---|---|---|---|---|---|---|
| 1778142058 | 17.22° C | 99% | 1011 hPa | 4.83 mm | - | 0 W/m² | - |
| 1778141755 | 17.22° C | 99% | 1011.4 hPa | 4.32 mm | - | 0 W/m² | - |
| 1778141452 | 17.78° C | 99% | 1011.2 hPa | 4.83 mm | - | 0 W/m² | - |
| 1778141148 | 17.78° C | 99% | 1011 hPa | 3.56 mm | - | 0 W/m² | - |
| 1778140844 | 17.78° C | 99% | 1011.4 hPa | 3.05 mm | - | 0 W/m² | - |
| 1778140539 | 17.78° C | 99% | 1011.3 hPa | 4.32 mm | - | 0 W/m² | - |
| 1778140236 | 17.78° C | 99% | 1011.3 hPa | 4.83 mm | - | 0 W/m² | - |
| 1778139933 | 17.78° C | 99% | 1011.4 hPa | 3.05 mm | - | 0 W/m² | - |
| 1778139631 | 17.78° C | 99% | 1011.3 hPa | 4.32 mm | - | 0 W/m² | - |
| 1778139327 | 17.78° C | 99% | 1010.9 hPa | 4.83 mm | - | 0 W/m² | - |
| 1778139024 | 17.78° C | 99% | 1011.1 hPa | 4.32 mm | - | 0 W/m² | - |
| 1778138721 | 17.78° C | 99% | 1011.5 hPa | 4.32 mm | - | 0 W/m² | - |
| 1778138418 | 17.78° C | 99% | 1011.4 hPa | 4.83 mm | - | 0 W/m² | - |
| 1778138116 | 17.78° C | 99% | 1011.1 hPa | 4.83 mm | - | 0 W/m² | - |
| 1778137812 | 17.78° C | 99% | 1011.2 hPa | 4.83 mm | - | 0 W/m² | - |
| 1778137510 | 17.78° C | 99% | 1011.6 hPa | 4.83 mm | - | 0 W/m² | - |
| 1778137207 | 17.78° C | 99% | 1011.8 hPa | 4.32 mm | - | 0 W/m² | - |
| 1778136902 | 17.78° C | 99% | 1011.7 hPa | 4.32 mm | - | 0 W/m² | - |
| 1778136600 | 17.78° C | 99% | 1011.5 hPa | 4.83 mm | - | 0 W/m² | - |
| 1778136298 | 17.78° C | 99% | 1011.2 hPa | 4.83 mm | - | 0 W/m² | - |
| 1778135996 | 17.78° C | 99% | 1011.8 hPa | 4.83 mm | - | 0 W/m² | - |
| 1778135692 | 17.78° C | 99% | 1012 hPa | 4.83 mm | - | 0 W/m² | - |
| 1778135390 | 17.78° C | 99% | 1012.2 hPa | 4.32 mm | - | 0 W/m² | - |
| 1778135087 | 17.78° C | 99% | 1012.2 hPa | 4.32 mm | - | 0 W/m² | - |
| 1778134784 | 17.78° C | 99% | 1011.8 hPa | 4.83 mm | - | 0 W/m² | - |
* Rain latest hour (hover to see other rain measurements)
** Current wind speed in m/s (hover to see current wind gust speed)